Time,TemperatureF,DewpointF,PressureIn,WindDirection,WindDirectionDegrees,WindSpeedMPH,WindSpeedGustMPH,Humidity,HourlyPrecipIn,Conditions,Clouds,dailyrainin,SoftwareType,DateUTC
2013-03-30 00:02:00,47.0,-99.9,30.20,South,190,9.0,11.0,-999,-99.99,,,-99.99,,2013-03-30 04:02:00,
2013-03-30 00:13:00,46.0,-99.9,30.19,South,190,7.0,9.0,-999,-99.99,,,-99.99,,2013-03-30 04:13:00,
2013-03-30 00:23:00,46.0,-99.9,30.19,South,190,7.0,9.0,-999,-99.99,,,-99.99,,2013-03-30 04:23:00,
2013-03-30 00:33:00,46.0,-99.9,30.20,South,190,7.0,11.0,-999,-99.99,,,-99.99,,2013-03-30 04:33:00,
2013-03-30 00:43:00,46.0,-99.9,30.20,SW,220,4.0,7.0,-999,-99.99,,,-99.99,,2013-03-30 04:43:00,
2013-03-30 00:53:00,46.0,-99.9,30.20,SW,220,4.0,7.0,-999,-99.99,,,-99.99,,2013-03-30 04:53:00,
2013-03-30 01:03:00,46.0,-99.9,30.20,SW,220,4.0,7.0,-999,-99.99,,,-99.99,,2013-03-30 05:03:00,
2013-03-30 01:12:00,46.0,-99.9,30.19,SW,220,4.0,7.0,-999,-99.99,,,-99.99,,2013-03-30 05:12:00,
2013-03-30 01:22:00,46.0,-99.9,30.19,SSW,210,7.0,7.0,-999,-99.99,,,-99.99,,2013-03-30 05:22:00,
2013-03-30 01:32:00,46.0,-99.9,30.19,SSW,210,7.0,9.0,-999,-99.99,,,-99.99,,2013-03-30 05:32:00,
2013-03-30 01:42:00,46.0,-99.9,30.19,SSW,210,7.0,9.0,-999,-99.99,,,-99.99,,2013-03-30 05:42:00,
2013-03-30 01:52:00,46.0,-99.9,30.19,SSW,200,4.0,7.0,-999,-99.99,,,-99.99,,2013-03-30 05:52:00,
2013-03-30 02:02:00,46.0,-99.9,30.18,SW,220,4.0,7.0,-999,-99.99,,,-99.99,,2013-03-30 06:02:00,
2013-03-30 02:12:00,45.0,-99.9,30.18,SW,230,2.0,4.0,-999,-99.99,,,-99.99,,2013-03-30 06:12:00,
2013-03-30 02:32:00,45.0,-99.9,30.18,SW,230,2.0,4.0,-999,-99.99,,,-99.99,,2013-03-30 06:32:00,
2013-03-30 02:42:00,45.0,-99.9,30.17,SW,230,2.0,2.0,-999,-99.99,,,-99.99,,2013-03-30 06:42:00,
2013-03-30 02:52:00,45.0,-99.9,30.17,SW,230,2.0,2.0,-999,-99.99,,,-99.99,,2013-03-30 06:52:00,
2013-03-30 03:02:00,45.0,-99.9,30.17,SSE,150,4.0,4.0,-999,-99.99,,,-99.99,,2013-03-30 07:02:00,
2013-03-30 03:12:00,45.0,-99.9,30.17,SW,230,4.0,4.0,-999,-99.99,,,-99.99,,2013-03-30 07:12:00,
2013-03-30 03:22:00,45.0,-99.9,30.17,SW,230,4.0,4.0,-999,-99.99,,,-99.99,,2013-03-30 07:22:00,
2013-03-30 03:32:00,45.0,-99.9,30.17,SW,220,4.0,4.0,-999,-99.99,,,-99.99,,2013-03-30 07:32:00,
2013-03-30 03:42:00,44.0,-99.9,30.17,SW,220,4.0,7.0,-999,-99.99,,,-99.99,,2013-03-30 07:42:00,
2013-03-30 03:52:00,44.0,-99.9,30.17,SW,220,4.0,7.0,-999,-99.99,,,-99.99,,2013-03-30 07:52:00,
2013-03-30 04:02:00,44.0,-99.9,30.17,SW,220,4.0,7.0,-999,-99.99,,,-99.99,,2013-03-30 08:02:00,
2013-03-30 04:12:00,44.0,-99.9,30.17,SW,220,4.0,7.0,-999,-99.99,,,-99.99,,2013-03-30 08:12:00,
2013-03-30 04:22:00,44.0,-99.9,30.17,SSW,210,4.0,7.0,-999,-99.99,,,-99.99,,2013-03-30 08:22:00,
2013-03-30 04:32:00,44.0,-99.9,30.17,SSW,210,4.0,7.0,-999,-99.99,,,-99.99,,2013-03-30 08:32:00,
2013-03-30 04:42:00,43.0,-99.9,30.16,SW,220,4.0,7.0,-999,-99.99,,,-99.99,,2013-03-30 08:42:00,
2013-03-30 04:53:00,43.0,-99.9,30.16,SW,220,4.0,7.0,-999,-99.99,,,-99.99,,2013-03-30 08:53:00,
2013-03-30 05:03:00,43.0,-99.9,30.16,SW,220,4.0,7.0,-999,-99.99,,,-99.99,,2013-03-30 09:03:00,
2013-03-30 05:13:00,43.0,-99.9,30.16,SW,220,4.0,4.0,-999,-99.99,,,-99.99,,2013-03-30 09:13:00,
2013-03-30 05:23:00,43.0,-99.9,30.16,SW,220,4.0,4.0,-999,-99.99,,,-99.99,,2013-03-30 09:23:00,
2013-03-30 05:33:00,43.0,-99.9,30.16,SW,220,4.0,4.0,-999,-99.99,,,-99.99,,2013-03-30 09:33:00,
2013-03-30 05:43:00,43.0,-99.9,30.16,SSW,210,2.0,2.0,-999,-99.99,,,-99.99,,2013-03-30 09:43:00,
2013-03-30 05:54:00,43.0,-99.9,30.16,SSW,210,2.0,2.0,-999,-99.99,,,-99.99,,2013-03-30 09:54:00,
2013-03-30 06:03:00,43.0,-99.9,30.16,SSW,210,2.0,2.0,-999,-99.99,,,-99.99,,2013-03-30 10:03:00,
2013-03-30 06:13:00,43.0,-99.9,30.16,SW,220,2.0,2.0,-999,-99.99,,,-99.99,,2013-03-30 10:13:00,
2013-03-30 06:23:00,43.0,-99.9,30.16,WSW,240,2.0,2.0,-999,-99.99,,,-99.99,,2013-03-30 10:23:00,
2013-03-30 06:33:00,43.0,-99.9,30.16,WSW,250,2.0,2.0,-999,-99.99,,,-99.99,,2013-03-30 10:33:00,
2013-03-30 06:42:00,43.0,-99.9,30.16,WSW,250,2.0,2.0,-999,-99.99,,,-99.99,,2013-03-30 10:42:00,
2013-03-30 06:53:00,43.0,-99.9,30.16,WSW,240,2.0,2.0,-999,-99.99,,,-99.99,,2013-03-30 10:53:00,
2013-03-30 07:04:00,43.0,-99.9,30.16,North,0,0.0,2.0,-999,-99.99,,,-99.99,,2013-03-30 11:04:00,
2013-03-30 07:13:00,43.0,-99.9,30.16,North,0,0.0,2.0,-999,-99.99,,,-99.99,,2013-03-30 11:13:00,
2013-03-30 07:23:00,43.0,-99.9,30.16,North,0,0.0,2.0,-999,-99.99,,,-99.99,,2013-03-30 11:23:00,
2013-03-30 07:30:00,44.0,-99.9,30.17,North,0,0.0,2.0,-999,-99.99,,,-99.99,,2013-03-30 11:30:00,
2013-03-30 07:33:00,44.0,-99.9,30.17,North,0,0.0,2.0,-999,-99.99,,,-99.99,,2013-03-30 11:33:00,
2013-03-30 07:43:00,44.0,-99.9,30.17,North,0,0.0,2.0,-999,-99.99,,,-99.99,,2013-03-30 11:43:00,
2013-03-30 07:53:00,43.0,-99.9,30.17,North,0,0.0,0.0,-999,-99.99,,,-99.99,,2013-03-30 11:53:00,
2013-03-30 08:03:00,44.0,-99.9,30.17,North,0,0.0,2.0,-999,-99.99,,,-99.99,,2013-03-30 12:03:00,
2013-03-30 08:13:00,44.0,-99.9,30.17,North,0,0.0,2.0,-999,-99.99,,,-99.99,,2013-03-30 12:13:00,
2013-03-30 08:23:00,44.0,-99.9,30.17,North,0,0.0,2.0,-999,-99.99,,,-99.99,,2013-03-30 12:23:00,
2013-03-30 08:43:00,47.0,-99.9,30.18,North,0,0.0,2.0,-999,-99.99,,,-99.99,,2013-03-30 12:43:00,
2013-03-30 08:53:00,46.0,-99.9,30.18,North,10,2.0,4.0,-999,-99.99,,,-99.99,,2013-03-30 12:53:00,
2013-03-30 09:02:00,46.0,-99.9,30.18,North,10,2.0,4.0,-999,-99.99,,,-99.99,,2013-03-30 13:02:00,
2013-03-30 09:12:00,47.0,-99.9,30.19,NNW,340,2.0,4.0,-999,-99.99,,,-99.99,,2013-03-30 13:12:00,
2013-03-30 09:23:00,47.0,-99.9,30.19,NW,310,2.0,4.0,-999,-99.99,,,-99.99,,2013-03-30 13:23:00,
2013-03-30 09:32:00,48.0,-99.9,30.19,West,270,4.0,7.0,-999,-99.99,,,-99.99,,2013-03-30 13:32:00,
2013-03-30 09:43:00,48.0,-99.9,30.19,West,270,4.0,7.0,-999,-99.99,,,-99.99,,2013-03-30 13:43:00,
2013-03-30 09:53:00,49.0,-99.9,30.19,North,360,2.0,4.0,-999,-99.99,,,-99.99,,2013-03-30 13:53:00,
2013-03-30 10:03:00,48.0,-99.9,30.19,North,10,4.0,7.0,-999,-99.99,,,-99.99,,2013-03-30 14:03:00,
2013-03-30 10:12:00,48.0,-99.9,30.19,North,10,4.0,4.0,-999,-99.99,,,-99.99,,2013-03-30 14:12:00,
2013-03-30 10:23:00,48.0,-99.9,30.19,NNE,20,2.0,4.0,-999,-99.99,,,-99.99,,2013-03-30 14:23:00,
2013-03-30 10:33:00,48.0,-99.9,30.19,NNE,20,2.0,4.0,-999,-99.99,,,-99.99,,2013-03-30 14:33:00,
2013-03-30 10:43:00,49.0,-99.9,30.19,NNE,30,2.0,4.0,-999,-99.99,,,-99.99,,2013-03-30 14:43:00,
2013-03-30 10:53:00,50.0,-99.9,30.19,North,360,7.0,11.0,-999,-99.99,,,-99.99,,2013-03-30 14:53:00,
2013-03-30 11:03:00,51.0,-99.9,30.19,North,350,9.0,11.0,-999,-99.99,,,-99.99,,2013-03-30 15:03:00,
2013-03-30 11:13:00,50.0,-99.9,30.19,NNW,340,7.0,9.0,-999,-99.99,,,-99.99,,2013-03-30 15:13:00,
2013-03-30 11:23:00,50.0,-99.9,30.19,NNW,340,7.0,9.0,-999,-99.99,,,-99.99,,2013-03-30 15:23:00,
2013-03-30 11:34:00,50.0,-99.9,30.20,NNW,330,4.0,9.0,-999,-99.99,,,-99.99,,2013-03-30 15:34:00,
2013-03-30 11:43:00,50.0,-99.9,30.20,NNW,330,4.0,9.0,-999,-99.99,,,-99.99,,2013-03-30 15:43:00,
2013-03-30 11:53:00,51.0,-99.9,30.19,North,350,7.0,9.0,-999,-99.99,,,-99.99,,2013-03-30 15:53:00,
2013-03-30 12:04:00,52.0,-99.9,30.19,NNW,340,7.0,9.0,-999,-99.99,,,-99.99,,2013-03-30 16:04:00,
2013-03-30 12:13:00,52.0,-99.9,30.19,NNW,340,7.0,9.0,-999,-99.99,,,-99.99,,2013-03-30 16:13:00,
2013-03-30 12:23:00,54.0,-99.9,30.19,NNW,340,4.0,9.0,-999,-99.99,,,-99.99,,2013-03-30 16:23:00,
2013-03-30 12:33:00,54.0,-99.9,30.19,NNW,340,4.0,7.0,-999,-99.99,,,-99.99,,2013-03-30 16:33:00,
2013-03-30 12:43:00,54.0,-99.9,30.18,NNW,340,4.0,9.0,-999,-99.99,,,-99.99,,2013-03-30 16:43:00,
2013-03-30 12:53:00,55.0,-99.9,30.18,North,350,7.0,9.0,-999,-99.99,,,-99.99,,2013-03-30 16:53:00,
2013-03-30 13:03:00,55.0,-99.9,30.18,North,350,7.0,9.0,-999,-99.99,,,-99.99,,2013-03-30 17:03:00,
2013-03-30 13:13:00,55.0,-99.9,30.18,North,350,7.0,9.0,-999,-99.99,,,-99.99,,2013-03-30 17:13:00,
2013-03-30 13:23:00,55.0,-99.9,30.17,North,10,4.0,7.0,-999,-99.99,,,-99.99,,2013-03-30 17:23:00,
2013-03-30 13:33:00,55.0,-99.9,30.16,North,10,4.0,7.0,-999,-99.99,,,-99.99,,2013-03-30 17:33:00,
2013-03-30 13:43:00,55.0,-99.9,30.16,North,360,7.0,11.0,-999,-99.99,,,-99.99,,2013-03-30 17:43:00,
2013-03-30 13:53:00,56.0,-99.9,30.16,North,360,7.0,9.0,-999,-99.99,,,-99.99,,2013-03-30 17:53:00,
2013-03-30 14:03:00,56.0,-99.9,30.16,North,350,7.0,9.0,-999,-99.99,,,-99.99,,2013-03-30 18:03:00,
2013-03-30 14:13:00,56.0,-99.9,30.16,North,350,7.0,9.0,-999,-99.99,,,-99.99,,2013-03-30 18:13:00,
2013-03-30 14:22:00,56.0,-99.9,30.16,North,350,7.0,9.0,-999,-99.99,,,-99.99,,2013-03-30 18:22:00,
2013-03-30 14:33:00,56.0,-99.9,30.14,North,350,7.0,11.0,-999,-99.99,,,-99.99,,2013-03-30 18:33:00,
2013-03-30 14:43:00,56.0,-99.9,30.14,North,350,7.0,9.0,-999,-99.99,,,-99.99,,2013-03-30 18:43:00,
2013-03-30 14:53:00,57.0,-99.9,30.14,North,350,7.0,9.0,-999,-99.99,,,-99.99,,2013-03-30 18:53:00,
2013-03-30 15:03:00,57.0,-99.9,30.14,North,350,7.0,9.0,-999,-99.99,,,-99.99,,2013-03-30 19:03:00,
2013-03-30 15:13:00,57.0,-99.9,30.13,North,350,7.0,7.0,-999,-99.99,,,-99.99,,2013-03-30 19:13:00,
2013-03-30 15:22:00,57.0,-99.9,30.13,North,350,7.0,9.0,-999,-99.99,,,-99.99,,2013-03-30 19:22:00,
2013-03-30 15:32:00,57.0,-99.9,30.13,North,350,7.0,9.0,-999,-99.99,,,-99.99,,2013-03-30 19:32:00,
2013-03-30 15:42:00,57.0,-99.9,30.12,North,360,9.0,11.0,-999,-99.99,,,-99.99,,2013-03-30 19:42:00,
2013-03-30 15:53:00,58.0,-99.9,30.11,North,360,4.0,7.0,-999,-99.99,,,-99.99,,2013-03-30 19:53:00,
2013-03-30 16:02:00,58.0,-99.9,30.11,North,360,4.0,7.0,-999,-99.99,,,-99.99,,2013-03-30 20:02:00,
2013-03-30 16:12:00,58.0,-99.9,30.11,North,350,7.0,9.0,-999,-99.99,,,-99.99,,2013-03-30 20:12:00,
2013-03-30 16:22:00,58.0,-99.9,30.12,North,350,4.0,7.0,-999,-99.99,,,-99.99,,2013-03-30 20:22:00,
2013-03-30 16:33:00,58.0,-99.9,30.12,North,360,4.0,7.0,-999,-99.99,,,-99.99,,2013-03-30 20:33:00,
2013-03-30 16:43:00,58.0,-99.9,30.12,North,360,4.0,7.0,-999,-99.99,,,-99.99,,2013-03-30 20:43:00,
2013-03-30 16:53:00,58.0,-99.9,30.11,North,350,4.0,4.0,-999,-99.99,,,-99.99,,2013-03-30 20:53:00,
2013-03-30 17:03:00,58.0,-99.9,30.11,North,350,4.0,4.0,-999,-99.99,,,-99.99,,2013-03-30 21:03:00,
2013-03-30 17:13:00,59.0,-99.9,30.11,NNW,340,4.0,9.0,-999,-99.99,,,-99.99,,2013-03-30 21:13:00,
2013-03-30 17:23:00,59.0,-99.9,30.11,NNW,340,4.0,9.0,-999,-99.99,,,-99.99,,2013-03-30 21:23:00,
2013-03-30 17:34:00,59.0,-99.9,30.10,North,360,4.0,7.0,-999,-99.99,,,-99.99,,2013-03-30 21:34:00,
2013-03-30 17:43:00,59.0,-99.9,30.10,North,360,4.0,7.0,-999,-99.99,,,-99.99,,2013-03-30 21:43:00,
2013-03-30 17:53:00,58.0,-99.9,30.10,ESE,120,4.0,9.0,-999,-99.99,,,-99.99,,2013-03-30 21:53:00,
2013-03-30 18:03:00,58.0,-99.9,30.11,SE,130,7.0,9.0,-999,-99.99,,,-99.99,,2013-03-30 22:03:00,
2013-03-30 18:13:00,58.0,-99.9,30.11,SE,140,7.0,11.0,-999,-99.99,,,-99.99,,2013-03-30 22:13:00,
2013-03-30 18:24:00,58.0,-99.9,30.11,SE,140,7.0,11.0,-999,-99.99,,,-99.99,,2013-03-30 22:24:00,
2013-03-30 18:33:00,57.0,-99.9,30.11,SSE,160,11.0,16.0,-999,-99.99,,,-99.99,,2013-03-30 22:33:00,
2013-03-30 18:44:00,57.0,-99.9,30.11,SSE,150,11.0,13.0,-999,-99.99,,,-99.99,,2013-03-30 22:44:00,
2013-03-30 18:54:00,57.0,-99.9,30.11,SSE,150,11.0,13.0,-999,-99.99,,,-99.99,,2013-03-30 22:54:00,
2013-03-30 19:03:00,55.0,-99.9,30.11,SE,140,11.0,18.0,-999,-99.99,,,-99.99,,2013-03-30 23:03:00,
2013-03-30 19:13:00,55.0,-99.9,30.11,SE,140,11.0,18.0,-999,-99.99,,,-99.99,,2013-03-30 23:13:00,
2013-03-30 19:22:00,55.0,-99.9,30.11,SE,140,11.0,18.0,-999,-99.99,,,-99.99,,2013-03-30 23:22:00,
2013-03-30 19:33:00,55.0,-99.9,30.11,SSE,160,11.0,13.0,-999,-99.99,,,-99.99,,2013-03-30 23:33:00,
2013-03-30 19:43:00,54.0,-99.9,30.11,SSE,150,11.0,13.0,-999,-99.99,,,-99.99,,2013-03-30 23:43:00,
2013-03-30 19:53:00,54.0,-99.9,30.11,SSE,150,11.0,13.0,-999,-99.99,,,-99.99,,2013-03-30 23:53:00,
2013-03-30 20:03:00,54.0,-99.9,30.12,SSE,150,9.0,13.0,-999,-99.99,,,-99.99,,2013-03-31 00:03:00,
2013-03-30 20:12:00,53.0,-99.9,30.12,SSE,160,9.0,13.0,-999,-99.99,,,-99.99,,2013-03-31 00:12:00,
2013-03-30 20:23:00,53.0,-99.9,30.12,SSE,160,9.0,11.0,-999,-99.99,,,-99.99,,2013-03-31 00:23:00,
2013-03-30 20:33:00,53.0,-99.9,30.12,SSE,160,9.0,11.0,-999,-99.99,,,-99.99,,2013-03-31 00:33:00,
2013-03-30 20:43:00,52.0,-99.9,30.13,South,170,9.0,13.0,-999,-99.99,,,-99.99,,2013-03-31 00:43:00,
2013-03-30 20:53:00,52.0,-99.9,30.13,South,170,9.0,11.0,-999,-99.99,,,-99.99,,2013-03-31 00:53:00,
2013-03-30 21:02:00,52.0,-99.9,30.13,South,170,9.0,11.0,-999,-99.99,,,-99.99,,2013-03-31 01:02:00,
2013-03-30 21:12:00,51.0,-99.9,30.14,SSE,150,9.0,13.0,-999,-99.99,,,-99.99,,2013-03-31 01:12:00,
2013-03-30 21:23:00,51.0,-99.9,30.14,SSE,160,11.0,13.0,-999,-99.99,,,-99.99,,2013-03-31 01:23:00,
2013-03-30 21:32:00,51.0,-99.9,30.15,SSE,160,9.0,13.0,-999,-99.99,,,-99.99,,2013-03-31 01:32:00,
2013-03-30 21:43:00,51.0,-99.9,30.15,SSE,160,9.0,13.0,-999,-99.99,,,-99.99,,2013-03-31 01:43:00,
2013-03-30 21:53:00,50.0,-99.9,30.15,SSE,160,7.0,9.0,-999,-99.99,,,-99.99,,2013-03-31 01:53:00,
2013-03-30 22:00:00,49.0,-99.9,30.15,SSE,160,7.0,9.0,-999,-99.99,,,-99.99,,2013-03-31 02:00:00,
2013-03-30 22:02:00,50.0,-99.9,30.15,SSE,150,9.0,11.0,-999,-99.99,,,-99.99,,2013-03-31 02:02:00,
2013-03-30 22:13:00,50.0,-99.9,30.15,SSE,150,9.0,11.0,-999,-99.99,,,-99.99,,2013-03-31 02:13:00,
2013-03-30 22:22:00,49.0,-99.9,30.15,SSE,150,7.0,9.0,-999,-99.99,,,-99.99,,2013-03-31 02:22:00,
2013-03-30 22:33:00,49.0,-99.9,30.15,SSE,160,7.0,9.0,-999,-99.99,,,-99.99,,2013-03-31 02:33:00,
2013-03-30 22:43:00,49.0,-99.9,30.15,SSE,160,7.0,9.0,-999,-99.99,,,-99.99,,2013-03-31 02:43:00,
2013-03-30 22:53:00,49.0,-99.9,30.15,SSE,160,7.0,9.0,-999,-99.99,,,-99.99,,2013-03-31 02:53:00,
2013-03-30 23:13:00,48.0,-99.9,30.15,SSE,160,7.0,9.0,-999,-99.99,,,-99.99,,2013-03-31 03:13:00,
2013-03-30 23:22:00,48.0,-99.9,30.15,SSE,160,7.0,9.0,-999,-99.99,,,-99.99,,2013-03-31 03:22:00,
2013-03-30 23:33:00,48.0,-99.9,30.14,SSE,160,9.0,9.0,-999,-99.99,,,-99.99,,2013-03-31 03:33:00,
2013-03-30 23:44:00,48.0,-99.9,30.14,SSE,160,7.0,9.0,-999,-99.99,,,-99.99,,2013-03-31 03:44:00,
2013-03-30 23:54:00,48.0,-99.9,30.14,SSE,160,7.0,9.0,-999,-99.99,,,-99.99,,2013-03-31 03:54:00,